QPF
0.00 0.00 0.01 0.01 0.01 0.01 0.00 0.00 0.00 0.00 0.00 0.00 0.00 0.00 0.00 0.01 0.01 0.01 0.00 0.00 0.00 0.01 0.02 0.03 0.05 0.04 0.03 0.03 0.03 0.03 0.05 0.07 0.06 0.04 0.03 0.03 0.03 0.04 0.04 0.04 0.05 0.06 0.08 0.09 0.09 0.09 0.07 0.05 0.04
0.00 0.00 0.01 0.01 0.01 0.00 0.00 0.00 0.00 0.00 0.00 0.00 0.00 0.00 0.00 0.01 0.01 0.00 0.00 0.00 0.01 0.02 0.03 0.03 0.04 0.03 0.03 0.03 0.03 0.02 0.04 0.07 0.07 0.05 0.04 0.04 0.04 0.05 0.05 0.05 0.05 0.05 0.07 0.10 0.14 0.15 0.12 0.07 0.04
0.00 0.00 0.01 0.01 0.01 0.00 0.01 0.00 0.00 0.00 0.00 0.00 0.00 0.00 0.00 0.00 0.00 0.00 0.00 0.01 0.01 0.02 0.02 0.03 0.04 0.04 0.04 0.04 0.04 0.03 0.03 0.05 0.08 0.07 0.05 0.05 0.05 0.05 0.04 0.04 0.05 0.05 0.06 0.09 0.09 0.10 0.12 0.09 0.06
0.00 0.00 0.01 0.01 0.01 0.01 0.01 0.00 0.00 0.00 0.00 0.00 0.00 0.00 0.00 0.00 0.00 0.00 0.00 0.01 0.01 0.01 0.02 0.03 0.04 0.05 0.05 0.04 0.05 0.05 0.04 0.05 0.07 0.08 0.07 0.06 0.04 0.03 0.03 0.03 0.03 0.04 0.05 0.05 0.05 0.04 0.06 0.06 0.06
0.00 0.00 0.00 0.01 0.01 0.01 0.01 0.00 0.00 0.00 0.00 0.00 0.00 0.00 0.00 0.00 0.00 0.00 0.00 0.01 0.01 0.02 0.02 0.02 0.03 0.04 0.04 0.04 0.04 0.04 0.05 0.05 0.06 0.06 0.06 0.07 0.06 0.03 0.02 0.02 0.02 0.02 0.02 0.02 0.02 0.02 0.03 0.04 0.05
0.00 0.00 0.00 0.00 0.00 0.00 0.01 0.00 0.00 0.00 0.00 0.00 0.00 0.00 0.00 0.00 0.00 0.00 0.00 0.01 0.01 0.02 0.02 0.02 0.03 0.03 0.04 0.04 0.04 0.04 0.05 0.06 0.09 0.07 0.05 0.05 0.05 0.03 0.02 0.01 0.02 0.02 0.01 0.01 0.01 0.01 0.02 0.02 0.03
0.00 0.00 0.00 0.00 0.00 0.00 0.00 0.00 0.00 0.00 0.00 0.00 0.00 0.00 0.00 0.00 0.00 0.01 0.01 0.01 0.01 0.01 0.01 0.01 0.02 0.02 0.03 0.03 0.04 0.05 0.05 0.07 0.11 0.11 0.08 0.06 0.04 0.03 0.02 0.01 0.02 0.02 0.01 0.01 0.01 0.01 0.01 0.01 0.01
0.00 0.00 0.00 0.00 0.00 0.00 0.00 0.00 0.00 0.00 0.00 0.01 0.01 0.00 0.00 0.00 0.01 0.01 0.01 0.01 0.01 0.01 0.01 0.01 0.02 0.02 0.03 0.03 0.04 0.05 0.05 0.07 0.10 0.11 0.10 0.09 0.06 0.03 0.02 0.01 0.02 0.02 0.01 0.01 0.01 0.00 0.00 0.01 0.02
0.00 0.00 0.00 0.00 0.00 0.00 0.00 0.00 0.00 0.00 0.01 0.01 0.01 0.01 0.00 0.00 0.01 0.02 0.02 0.01 0.01 0.02 0.01 0.01 0.02 0.02 0.03 0.05 0.06 0.07 0.08 0.07 0.09 0.09 0.08 0.08 0.06 0.02 0.01 0.01 0.01 0.01 0.01 0.01 0.00 0.00 0.00 0.00 0.01
0.00 0.00 0.00 0.00 0.00 0.00 0.00 0.00 0.00 0.01 0.01 0.01 0.01 0.01 0.01 0.00 0.01 0.01 0.02 0.02 0.01 0.01 0.01 0.01 0.01 0.02 0.03 0.04 0.06 0.07 0.10 0.09 0.06 0.06 0.05 0.04 0.03 0.02 0.01 0.01 0.01 0.01 0.01 0.01 0.01 0.00 0.00 0.00 0.00
0.00 0.00 0.00 0.00 0.00 0.00 0.00 0.00 0.00 0.01 0.01 0.01 0.01 0.01 0.01 0.01 0.01 0.01 0.01 0.01 0.01 0.01 0.01 0.01 0.00 0.01 0.01 0.02 0.04 0.06 0.09 0.12 0.10 0.08 0.06 0.04 0.02 0.02 0.01 0.01 0.00 0.00 0.00 0.01 0.01 0.00 0.00 0.00 0.00
0.01 0.00 0.00 0.00 0.00 0.00 0.01 0.01 0.01 0.01 0.01 0.01 0.01 0.01 0.01 0.01 0.01 0.01 0.01 0.01 0.01 0.01 0.01 0.01 0.01 0.01 0.01 0.02 0.03 0.04 0.05 0.07 0.08 0.08 0.07 0.05 0.04 0.03 0.01 0.00 0.00 0.00 0.00 0.01 0.01 0.01 0.00 0.00 0.00
0.00 0.01 0.00 0.00 0.00 0.00 0.01 0.01 0.01 0.01 0.01 0.01 0.01 0.02 0.02 0.02 0.01 0.01 0.01 0.01 0.00 0.00 0.00 0.00 0.01 0.01 0.01 0.01 0.02 0.02 0.04 0.05 0.05 0.05 0.05 0.04 0.04 0.03 0.02 0.01 0.01 0.00 0.01 0.01 0.02 0.02 0.01 0.00 0.00
0.00 0.00 0.00 0.00 0.00 0.00 0.01 0.01 0.01 0.01 0.01 0.01 0.01 0.02 0.02 0.02 0.02 0.01 0.01 0.01 0.01 0.00 0.00 0.00 0.00 0.01 0.01 0.01 0.01 0.01 0.02 0.05 0.07 0.07 0.05 0.04 0.03 0.02 0.02 0.01 0.01 0.01 0.01 0.01 0.03 0.02 0.02 0.01 0.00
0.01 0.01 0.01 0.00 0.00 0.00 0.01 0.01 0.01 0.01 0.01 0.01 0.01 0.01 0.03 0.03 0.03 0.02 0.02 0.01 0.01 0.01 0.01 0.01 0.01 0.01 0.01 0.01 0.01 0.01 0.02 0.03 0.06 0.09 0.08 0.05 0.04 0.03 0.02 0.01 0.01 0.01 0.01 0.01 0.02 0.04 0.03 0.02 0.01
0.01 0.01 0.01 0.01 0.00 0.00 0.01 0.01 0.01 0.01 0.01 0.00 0.01 0.01 0.02 0.03 0.03 0.02 0.02 0.02 0.01 0.01 0.01 0.01 0.01 0.01 0.01 0.01 0.01 0.01 0.01 0.02 0.04 0.07 0.09 0.08 0.06 0.04 0.03 0.02 0.02 0.01 0.01 0.01 0.01 0.02 0.03 0.03 0.02
0.01 0.01 0.00 0.00 0.00 0.00 0.01 0.01 0.01 0.01 0.01 0.00 0.00 0.01 0.01 0.02 0.02 0.02 0.03 0.03 0.02 0.02 0.01 0.01 0.01 0.01 0.01 0.01 0.01 0.01 0.01 0.02 0.02 0.04 0.07 0.09 0.09 0.08 0.07 0.06 0.04 0.03 0.02 0.01 0.01 0.02 0.02 0.03 0.03
0.01 0.00 0.00 0.00 0.00 0.00 0.00 0.00 0.00 0.01 0.01 0.01 0.01 0.01 0.01 0.01 0.01 0.02 0.02 0.02 0.02 0.02 0.01 0.01 0.01 0.01 0.01 0.01 0.01 0.01 0.01 0.02 0.02 0.03 0.04 0.07 0.09 0.09 0.08 0.08 0.07 0.05 0.03 0.02 0.02 0.02 0.02 0.02 0.02
0.01 0.01 0.00 0.00 0.00 0.00 0.00 0.00 0.00 0.00 0.01 0.01 0.01 0.01 0.01 0.02 0.02 0.01 0.02 0.02 0.02 0.02 0.01 0.01 0.01 0.01 0.01 0.01 0.00 0.00 0.01 0.01 0.01 0.02 0.02 0.03 0.05 0.06 0.06 0.06 0.06 0.06 0.06 0.05 0.04 0.03 0.02 0.02 0.02
0.01 0.01 0.01 0.00 0.00 0.00 0.00 0.00 0.00 0.00 0.01 0.01 0.01 0.01 0.01 0.02 0.04 0.03 0.02 0.02 0.02 0.02 0.03 0.02 0.01 0.01 0.01 0.00 0.00 0.00 0.00 0.00 0.00 0.01 0.01 0.03 0.04 0.05 0.05 0.05 0.04 0.04 0.04 0.04 0.05 0.05 0.04 0.03 0.02
0.01 0.01 0.01 0.01 0.01 0.01 0.00 0.00 0.00 0.00 0.00 0.01 0.01 0.01 0.01 0.02 0.03 0.04 0.03 0.03 0.03 0.03 0.03 0.03 0.02 0.01 0.01 0.01 0.01 0.01 0.00 0.00 0.00 0.00 0.01 0.01 0.03 0.04 0.05 0.05 0.05 0.04 0.03 0.03 0.04 0.05 0.05 0.05 0.03
0.01 0.01 0.01 0.01 0.01 0.01 0.01 0.01 0.00 0.00 0.00 0.00 0.00 0.01 0.01 0.02 0.02 0.03 0.03 0.03 0.03 0.04 0.04 0.03 0.03 0.02 0.02 0.02 0.02 0.01 0.01 0.01 0.00 0.00 0.00 0.00 0.01 0.03 0.04 0.04 0.04 0.04 0.04 0.04 0.03 0.04 0.04 0.04 0.04
0.01 0.00 0.01 0.01 0.01 0.02 0.01 0.01 0.00 0.00 0.00 0.00 0.00 0.00 0.00 0.01 0.01 0.02 0.02 0.02 0.02 0.02 0.04 0.04 0.03 0.03 0.03 0.03 0.03 0.03 0.02 0.02 0.01 0.01 0.01 0.01 0.01 0.02 0.03 0.04 0.04 0.04 0.04 0.03 0.03 0.03 0.03 0.03 0.03
0.01 0.01 0.01 0.01 0.02 0.02 0.01 0.01 0.00 0.00 0.00 0.00 0.00 0.00 0.00 0.00 0.00 0.00 0.00 0.01 0.01 0.02 0.03 0.03 0.03 0.03 0.03 0.03 0.04 0.04 0.03 0.03 0.02 0.02 0.01 0.01 0.01 0.01 0.02 0.04 0.04 0.04 0.03 0.03 0.03 0.03 0.04 0.04 0.03
0.02 0.03 0.04 0.03 0.03 0.01 0.00 0.00 0.00 0.00 0.00 0.00 0.00 0.00 0.00 0.00 0.01 0.00 0.00 0.01 0.01 0.02 0.02 0.02 0.02 0.02 0.02 0.02 0.03 0.03 0.04 0.05 0.04 0.03 0.03 0.03 0.02 0.02 0.03 0.03 0.03 0.03 0.03 0.02 0.02 0.02 0.03 0.03 0.03
0.01 0.03 0.03 0.02 0.01 0.00 0.00 0.00 0.00 0.00 0.00 0.00 0.00 0.00 0.00 0.01 0.01 0.01 0.00 0.01 0.02 0.02 0.01 0.01 0.02 0.02 0.02 0.02 0.02 0.02 0.03 0.04 0.05 0.06 0.06 0.06 0.05 0.04 0.04 0.04 0.04 0.04 0.03 0.03 0.02 0.02 0.02 0.03 0.03
0.01 0.02 0.01 0.02 0.01 0.01 0.00 0.00 0.00 0.00 0.00 0.00 0.00 0.00 0.00 0.01 0.01 0.01 0.01 0.01 0.01 0.01 0.00 0.00 0.01 0.01 0.01 0.01 0.02 0.02 0.02 0.02 0.03 0.04 0.04 0.05 0.05 0.05 0.05 0.05 0.05 0.05 0.05 0.05 0.05 0.04 0.04 0.03 0.03
0.01 0.02 0.02 0.03 0.02 0.01 0.00 0.00 0.00 0.00 0.00 0.00 0.00 0.00 0.00 0.01 0.01 0.01 0.01 0.00 0.00 0.00 0.00 0.01 0.01 0.01 0.00 0.01 0.01 0.01 0.02 0.02 0.02 0.02 0.02 0.03 0.03 0.04 0.05 0.06 0.06 0.06 0.05 0.05 0.06 0.06 0.05 0.04 0.04
0.02 0.02 0.02 0.02 0.02 0.02 0.01 0.00 0.00 0.00 0.00 0.00 0.00 0.00 0.00 0.00 0.00 0.00 0.00 0.00 0.00 0.00 0.01 0.01 0.01 0.00 0.00 0.00 0.01 0.01 0.02 0.02 0.03 0.02 0.02 0.02 0.02 0.02 0.03 0.03 0.04 0.05 0.06 0.05 0.04 0.04 0.04 0.03 0.03
0.03 0.03 0.03 0.03 0.02 0.01 0.01 0.00 0.00 0.00 0.00 0.00 0.00 0.00 0.00 0.00 0.00 0.00 0.00 0.00 0.00 0.00 0.00 0.00 0.00 0.00 0.00 0.00 0.01 0.01 0.02 0.02 0.02 0.02 0.02 0.02 0.03 0.03 0.03 0.02 0.02 0.03 0.03 0.03 0.03 0.03 0.03 0.02 0.02
MSLP
1011.76 1012.35 1013.26 1014.44 1015.78 1017.15 1018.43 1019.52 1020.36 1020.92 1021.25 1021.39 1021.41 1021.37 1021.31 1021.25 1021.18 1021.08 1020.94 1020.76 1020.55 1020.35 1020.19 1020.11 1020.14 1020.28 1020.51 1020.78 1021.06 1021.30 1021.47 1021.57 1021.62 1021.63 1021.64 1021.68 1021.76 1021.86 1021.98 1022.08 1022.13 1022.11 1022.04 1021.91 1021.75 1021.59 1021.45 1021.35 1021.30
1012.30 1013.05 1014.10 1015.35 1016.69 1017.98 1019.11 1020.01 1020.63 1020.98 1021.12 1021.12 1021.06 1021.00 1020.96 1020.95 1020.96 1020.94 1020.88 1020.76 1020.60 1020.43 1020.29 1020.23 1020.28 1020.44 1020.70 1021.01 1021.34 1021.63 1021.86 1022.01 1022.09 1022.13 1022.15 1022.19 1022.25 1022.33 1022.42 1022.49 1022.51 1022.48 1022.39 1022.26 1022.11 1021.96 1021.84 1021.76 1021.71
1012.92 1013.80 1014.92 1016.17 1017.43 1018.59 1019.54 1020.24 1020.66 1020.84 1020.85 1020.78 1020.70 1020.66 1020.68 1020.74 1020.83 1020.88 1020.88 1020.81 1020.68 1020.54 1020.43 1020.39 1020.47 1020.66 1020.95 1021.29 1021.65 1021.98 1022.24 1022.42 1022.52 1022.58 1022.60 1022.63 1022.67 1022.72 1022.77 1022.80 1022.79 1022.74 1022.65 1022.52 1022.39 1022.26 1022.16 1022.11 1022.09
1013.60 1014.57 1015.70 1016.88 1018.02 1019.00 1019.75 1020.25 1020.51 1020.58 1020.53 1020.46 1020.41 1020.43 1020.53 1020.67 1020.82 1020.93 1020.97 1020.93 1020.84 1020.73 1020.65 1020.64 1020.75 1020.97 1021.28 1021.64 1022.02 1022.35 1022.62 1022.80 1022.91 1022.97 1022.99 1023.01 1023.03 1023.05 1023.07 1023.08 1023.05 1022.98 1022.89 1022.77 1022.65 1022.55 1022.48 1022.46 1022.47
1014.30 1015.31 1016.41 1017.49 1018.46 1019.24 1019.80 1020.13 1020.27 1020.28 1020.24 1020.21 1020.24 1020.35 1020.53 1020.75 1020.94 1021.09 1021.15 1021.14 1021.08 1021.00 1020.97 1021.00 1021.14 1021.39 1021.71 1022.07 1022.42 1022.74 1022.99 1023.16 1023.26 1023.32 1023.35 1023.36 1023.38 1023.40 1023.41 1023.40 1023.36 1023.29 1023.19 1023.08 1022.98 1022.91 1022.87 1022.87 1022.90
1015.00 1016.02 1017.04 1017.98 1018.77 1019.36 1019.74 1019.94 1020.00 1020.00 1020.01 1020.07 1020.21 1020.42 1020.68 1020.95 1021.18 1021.34 1021.42 1021.43 1021.39 1021.36 1021.37 1021.46 1021.64 1021.90 1022.21 1022.55 1022.87 1023.14 1023.35 1023.50 1023.59 1023.64 1023.69 1023.73 1023.77 1023.81 1023.83 1023.82 1023.78 1023.71 1023.62 1023.52 1023.43 1023.37 1023.35 1023.37 1023.42
1015.68 1016.66 1017.59 1018.37 1018.97 1019.38 1019.61 1019.71 1019.74 1019.77 1019.85 1020.02 1020.26 1020.57 1020.90 1021.21 1021.46 1021.62 1021.71 1021.73 1021.74 1021.76 1021.83 1021.97 1022.19 1022.47 1022.77 1023.07 1023.34 1023.55 1023.71 1023.82 1023.91 1023.98 1024.06 1024.14 1024.23 1024.31 1024.36 1024.37 1024.34 1024.27 1024.18 1024.08 1023.99 1023.94 1023.93 1023.95 1024.01
1016.30 1017.23 1018.04 1018.67 1019.09 1019.34 1019.44 1019.47 1019.49 1019.57 1019.73 1020.00 1020.35 1020.73 1021.11 1021.44 1021.69 1021.86 1021.95 1022.00 1022.05 1022.14 1022.28 1022.49 1022.75 1023.05 1023.33 1023.59 1023.80 1023.95 1024.06 1024.15 1024.23 1024.33 1024.45 1024.60 1024.75 1024.88 1024.97 1025.01 1024.99 1024.92 1024.82 1024.71 1024.62 1024.56 1024.55 1024.57 1024.61
1016.88 1017.73 1018.41 1018.88 1019.15 1019.25 1019.25 1019.22 1019.25 1019.37 1019.62 1019.97 1020.39 1020.83 1021.24 1021.58 1021.83 1021.99 1022.10 1022.19 1022.30 1022.46 1022.68 1022.96 1023.27 1023.57 1023.85 1024.07 1024.22 1024.32 1024.39 1024.46 1024.55 1024.69 1024.87 1025.07 1025.29 1025.47 1025.60 1025.66 1025.65 1025.58 1025.47 1025.34 1025.24 1025.17 1025.14 1025.15 1025.17
1017.40 1018.16 1018.71 1019.03 1019.16 1019.14 1019.06 1018.99 1019.03 1019.19 1019.49 1019.90 1020.36 1020.83 1021.25 1021.58 1021.82 1021.99 1022.12 1022.26 1022.43 1022.67 1022.98 1023.32 1023.68 1024.01 1024.27 1024.46 1024.58 1024.64 1024.68 1024.75 1024.86 1025.03 1025.26 1025.52 1025.79 1026.02 1026.18 1026.25 1026.24 1026.16 1026.03 1025.90 1025.78 1025.69 1025.65 1025.64 1025.64
1017.87 1018.53 1018.96 1019.16 1019.16 1019.05 1018.90 1018.81 1018.84 1019.03 1019.35 1019.78 1020.26 1020.73 1021.14 1021.46 1021.69 1021.87 1022.03 1022.22 1022.46 1022.78 1023.15 1023.56 1023.96 1024.30 1024.57 1024.74 1024.83 1024.88 1024.92 1024.99 1025.12 1025.32 1025.59 1025.90 1026.19 1026.44 1026.62 1026.69 1026.68 1026.59 1026.46 1026.31 1026.19 1026.09 1026.04 1026.01 1025.99
1018.32 1018.88 1019.20 1019.29 1019.21 1019.02 1018.84 1018.73 1018.75 1018.93 1019.25 1019.67 1020.13 1020.58 1020.95 1021.25 1021.48 1021.67 1021.86 1022.09 1022.39 1022.77 1023.20 1023.65 1024.08 1024.44 1024.71 1024.89 1024.98 1025.03 1025.07 1025.16 1025.32 1025.55 1025.84 1026.15 1026.46 1026.71 1026.89 1026.96 1026.94 1026.85 1026.73 1026.59 1026.47 1026.38 1026.31 1026.27 1026.23
1018.76 1019.23 1019.46 1019.48 1019.33 1019.11 1018.90 1018.77 1018.78 1018.94 1019.24 1019.62 1020.03 1020.42 1020.76 1021.03 1021.25 1021.44 1021.65 1021.91 1022.25 1022.66 1023.13 1023.60 1024.05 1024.43 1024.71 1024.89 1025.00 1025.08 1025.15 1025.26 1025.44 1025.69 1025.98 1026.29 1026.59 1026.83 1026.98 1027.05 1027.04 1026.96 1026.86 1026.74 1026.64 1026.57 1026.51 1026.46 1026.38
1019.22 1019.62 1019.78 1019.75 1019.58 1019.35 1019.13 1018.99 1018.98 1019.10 1019.34 1019.65 1019.99 1020.32 1020.60 1020.83 1021.03 1021.22 1021.43 1021.71 1022.06 1022.48 1022.94 1023.42 1023.87 1024.25 1024.55 1024.77 1024.92 1025.04 1025.15 1025.30 1025.50 1025.75 1026.03 1026.33 1026.59 1026.80 1026.94 1027.01 1027.01 1026.96 1026.90 1026.83 1026.77 1026.72 1026.68 1026.62 1026.52
1019.71 1020.04 1020.16 1020.12 1019.95 1019.73 1019.52 1019.38 1019.33 1019.40 1019.56 1019.78 1020.03 1020.28 1020.49 1020.68 1020.84 1021.02 1021.22 1021.49 1021.83 1022.23 1022.67 1023.13 1023.57 1023.96 1024.28 1024.54 1024.75 1024.92 1025.10 1025.29 1025.51 1025.76 1026.03 1026.28 1026.51 1026.70 1026.83 1026.89 1026.92 1026.92 1026.91 1026.90 1026.90 1026.89 1026.86 1026.79 1026.67
1020.22 1020.50 1020.61 1020.57 1020.43 1020.23 1020.03 1019.88 1019.79 1019.79 1019.85 1019.97 1020.11 1020.26 1020.40 1020.53 1020.67 1020.82 1021.01 1021.25 1021.55 1021.92 1022.32 1022.75 1023.17 1023.57 1023.93 1024.24 1024.51 1024.76 1025.00 1025.24 1025.48 1025.73 1025.98 1026.20 1026.40 1026.56 1026.67 1026.76 1026.82 1026.88 1026.93 1026.99 1027.04 1027.08 1027.07 1027.00 1026.86
1020.75 1020.99 1021.10 1021.08 1020.97 1020.80 1020.61 1020.43 1020.29 1020.19 1020.14 1020.13 1020.16 1020.21 1020.27 1020.36 1020.46 1020.59 1020.76 1020.97 1021.24 1021.56 1021.92 1022.32 1022.72 1023.13 1023.52 1023.89 1024.24 1024.57 1024.87 1025.16 1025.43 1025.68 1025.90 1026.10 1026.27 1026.41 1026.53 1026.63 1026.74 1026.85 1026.97 1027.10 1027.20 1027.28 1027.30 1027.24 1027.09
1021.28 1021.49 1021.60 1021.61 1021.54 1021.39 1021.20 1020.98 1020.75 1020.54 1020.35 1020.21 1020.11 1020.06 1020.06 1020.10 1020.18 1020.30 1020.46 1020.66 1020.90 1021.18 1021.50 1021.86 1022.25 1022.67 1023.10 1023.53 1023.95 1024.35 1024.72 1025.05 1025.34 1025.58 1025.79 1025.97 1026.11 1026.25 1026.38 1026.52 1026.67 1026.83 1027.01 1027.19 1027.35 1027.46 1027.50 1027.46 1027.31
1021.78 1021.98 1022.10 1022.14 1022.10 1021.96 1021.74 1021.46 1021.12 1020.77 1020.44 1020.15 1019.93 1019.79 1019.73 1019.75 1019.83 1019.96 1020.12 1020.31 1020.53 1020.78 1021.07 1021.41 1021.79 1022.22 1022.68 1023.15 1023.63 1024.09 1024.51 1024.87 1025.18 1025.42 1025.62 1025.79 1025.93 1026.07 1026.22 1026.39 1026.58 1026.79 1027.02 1027.23 1027.42 1027.56 1027.64 1027.62 1027.51
1022.25 1022.45 1022.60 1022.67 1022.64 1022.50 1022.23 1021.85 1021.39 1020.88 1020.39 1019.96 1019.62 1019.40 1019.31 1019.32 1019.42 1019.58 1019.76 1019.97 1020.18 1020.42 1020.68 1020.99 1021.36 1021.79 1022.27 1022.77 1023.29 1023.78 1024.23 1024.61 1024.92 1025.17 1025.36 1025.53 1025.68 1025.83 1026.01 1026.22 1026.45 1026.70 1026.95 1027.19 1027.40 1027.56 1027.66 1027.68 1027.62
1022.69 1022.92 1023.11 1023.21 1023.19 1023.02 1022.68 1022.19 1021.57 1020.91 1020.25 1019.68 1019.24 1018.96 1018.84 1018.87 1019.01 1019.21 1019.44 1019.67 1019.89 1020.11 1020.35 1020.63 1020.98 1021.39 1021.86 1022.37 1022.89 1023.39 1023.84 1024.23 1024.54 1024.78 1024.98 1025.16 1025.33 1025.52 1025.74 1025.99 1026.25 1026.53 1026.79 1027.04 1027.26 1027.44 1027.56 1027.63 1027.62
1023.11 1023.40 1023.65 1023.80 1023.79 1023.57 1023.14 1022.52 1021.75 1020.91 1020.09 1019.39 1018.86 1018.54 1018.43 1018.48 1018.67 1018.93 1019.20 1019.45 1019.67 1019.87 1020.08 1020.32 1020.62 1020.99 1021.43 1021.92 1022.42 1022.90 1023.33 1023.70 1024.01 1024.25 1024.47 1024.67 1024.88 1025.12 1025.39 1025.68 1025.98 1026.28 1026.56 1026.81 1027.02 1027.20 1027.34 1027.45 1027.51
1023.56 1023.94 1024.27 1024.46 1024.45 1024.19 1023.66 1022.89 1021.96 1020.95 1020.00 1019.18 1018.58 1018.23 1018.13 1018.22 1018.46 1018.76 1019.06 1019.32 1019.53 1019.70 1019.86 1020.04 1020.27 1020.58 1020.96 1021.40 1021.85 1022.29 1022.70 1023.04 1023.33 1023.58 1023.82 1024.06 1024.32 1024.62 1024.95 1025.30 1025.65 1025.97 1026.25 1026.50 1026.70 1026.88 1027.03 1027.17 1027.30
1024.05 1024.55 1024.96 1025.21 1025.19 1024.87 1024.23 1023.33 1022.24 1021.09 1020.00 1019.10 1018.44 1018.08 1017.98 1018.11 1018.38 1018.70 1019.01 1019.26 1019.44 1019.55 1019.63 1019.73 1019.89 1020.12 1020.43 1020.79 1021.19 1021.58 1021.94 1022.26 1022.54 1022.80 1023.06 1023.35 1023.68 1024.05 1024.45 1024.87 1025.26 1025.61 1025.91 1026.15 1026.34 1026.50 1026.66 1026.83 1026.99
1024.59 1025.22 1025.73 1026.01 1025.98 1025.59 1024.85 1023.81 1022.58 1021.30 1020.11 1019.13 1018.44 1018.06 1017.98 1018.12 1018.40 1018.73 1019.02 1019.22 1019.33 1019.36 1019.36 1019.37 1019.43 1019.58 1019.81 1020.10 1020.44 1020.78 1021.10 1021.40 1021.67 1021.94 1022.23 1022.57 1022.97 1023.42 1023.90 1024.38 1024.83 1025.22 1025.53 1025.77 1025.95 1026.11 1026.26 1026.43 1026.62
1025.16 1025.91 1026.50 1026.80 1026.74 1026.27 1025.41 1024.25 1022.90 1021.51 1020.25 1019.22 1018.51 1018.13 1018.05 1018.20 1018.47 1018.77 1019.00 1019.14 1019.16 1019.09 1018.99 1018.90 1018.87 1018.94 1019.10 1019.34 1019.63 1019.93 1020.22 1020.50 1020.77 1021.05 1021.37 1021.76 1022.21 1022.73 1023.29 1023.84 1024.35 1024.79 1025.13 1025.38 1025.56 1025.70 1025.84 1026.00 1026.20
1025.74 1026.58 1027.20 1027.49 1027.36 1026.80 1025.83 1024.55 1023.11 1021.65 1020.34 1019.29 1018.58 1018.21 1018.13 1018.27 1018.51 1018.75 1018.90 1018.94 1018.86 1018.69 1018.49 1018.32 1018.22 1018.23 1018.34 1018.54 1018.79 1019.07 1019.34 1019.61 1019.88 1020.17 1020.51 1020.94 1021.44 1022.02 1022.64 1023.26 1023.82 1024.31 1024.69 1024.96 1025.15 1025.28 1025.41 1025.55 1025.73
1026.25 1027.12 1027.72 1027.95 1027.73 1027.06 1025.98 1024.62 1023.10 1021.61 1020.29 1019.26 1018.57 1018.21 1018.14 1018.25 1018.45 1018.61 1018.68 1018.62 1018.44 1018.17 1017.89 1017.64 1017.49 1017.47 1017.55 1017.74 1017.98 1018.25 1018.52 1018.78 1019.04 1019.34 1019.69 1020.13 1020.66 1021.28 1021.95 1022.62 1023.24 1023.78 1024.20 1024.50 1024.71 1024.85 1024.96 1025.08 1025.23
1026.62 1027.44 1027.96 1028.08 1027.74 1026.95 1025.78 1024.35 1022.82 1021.34 1020.06 1019.07 1018.43 1018.11 1018.04 1018.14 1018.27 1018.36 1018.34 1018.18 1017.91 1017.56 1017.21 1016.93 1016.76 1016.72 1016.81 1017.00 1017.25 1017.52 1017.78 1018.04 1018.29 1018.58 1018.93 1019.36 1019.90 1020.53 1021.23 1021.94 1022.60 1023.19 1023.66 1024.00 1024.24 1024.39 1024.50 1024.60 1024.71
1026.79 1027.49 1027.86 1027.83 1027.35 1026.45 1025.22 1023.77 1022.26 1020.84 1019.65 1018.75 1018.18 1017.91 1017.86 1017.94 1018.03 1018.04 1017.93 1017.69 1017.34 1016.93 1016.55 1016.24 1016.07 1016.04 1016.15 1016.35 1016.61 1016.89 1017.15 1017.40 1017.64 1017.90 1018.23 1018.65 1019.18 1019.81 1020.51 1021.24 1021.94 1022.57 1023.08 1023.47 1023.74 1023.92 1024.03 1024.11 1024.18
Thickness
5693 5696 5697 5690 5673 5656 5658 5669 5677 5680 5684 5687 5689 5689 5687 5685 5684 5683 5688 5694 5696 5696 5697 5698 5699 5700 5700 5700 5700 5700 5700 5700 5700 5700 5700 5701 5701 5702 5702 5703 5703 5704 5704 5704 5704 5703 5703 5703 5702
5688 5690 5686 5673 5656 5646 5655 5668 5673 5678 5683 5683 5682 5683 5681 5679 5681 5682 5685 5688 5691 5692 5693 5694 5695 5695 5695 5695 5695 5695 5695 5695 5696 5695 5695 5695 5696 5697 5697 5697 5698 5698 5699 5699 5699 5698 5698 5697 5697
5684 5683 5670 5657 5648 5648 5660 5670 5672 5675 5678 5679 5674 5673 5674 5673 5676 5677 5680 5683 5685 5686 5687 5688 5689 5690 5690 5690 5690 5690 5691 5691 5690 5690 5690 5690 5691 5691 5692 5692 5692 5692 5692 5693 5693 5693 5692 5691 5691
5674 5667 5658 5648 5648 5655 5663 5669 5669 5670 5672 5672 5670 5666 5667 5670 5671 5673 5676 5678 5679 5680 5681 5682 5683 5684 5684 5685 5685 5685 5685 5686 5685 5685 5685 5685 5685 5685 5686 5686 5686 5686 5686 5686 5687 5686 5686 5686 5685
5663 5653 5642 5637 5647 5655 5659 5663 5665 5665 5665 5665 5664 5661 5661 5664 5667 5669 5670 5672 5673 5673 5674 5675 5676 5677 5678 5678 5679 5679 5680 5680 5680 5680 5679 5679 5679 5679 5679 5680 5680 5680 5680 5680 5680 5680 5680 5679 5679
5646 5639 5628 5631 5642 5650 5654 5657 5659 5657 5657 5657 5657 5655 5654 5659 5661 5662 5664 5665 5665 5666 5667 5668 5669 5670 5670 5671 5672 5673 5673 5674 5674 5673 5673 5673 5673 5673 5673 5673 5673 5673 5673 5673 5673 5673 5673 5672 5672
5635 5628 5625 5631 5636 5642 5649 5651 5650 5650 5650 5650 5652 5649 5649 5652 5654 5656 5656 5657 5657 5658 5659 5660 5661 5662 5663 5664 5664 5665 5666 5667 5667 5667 5667 5666 5666 5666 5666 5666 5666 5666 5666 5666 5666 5666 5665 5665 5664
5631 5623 5622 5623 5630 5636 5643 5645 5646 5645 5645 5646 5647 5643 5643 5647 5649 5649 5649 5649 5650 5650 5651 5652 5653 5654 5655 5656 5657 5658 5659 5660 5660 5659 5659 5659 5659 5658 5659 5659 5659 5659 5659 5659 5658 5658 5657 5657 5656
5627 5613 5613 5621 5625 5631 5636 5636 5638 5640 5638 5638 5639 5640 5642 5643 5642 5642 5641 5641 5641 5642 5643 5644 5646 5647 5647 5649 5649 5650 5651 5652 5652 5651 5651 5651 5651 5651 5651 5651 5651 5651 5651 5651 5650 5650 5649 5648 5648
5613 5604 5614 5621 5623 5624 5626 5627 5628 5629 5629 5629 5630 5631 5633 5634 5635 5635 5634 5633 5633 5634 5634 5636 5637 5638 5639 5640 5641 5641 5642 5642 5643 5643 5642 5643 5643 5643 5642 5642 5642 5643 5643 5642 5642 5641 5641 5640 5640
5605 5603 5610 5613 5616 5617 5617 5617 5620 5621 5620 5623 5624 5624 5624 5625 5627 5627 5627 5627 5626 5626 5626 5627 5629 5630 5631 5632 5633 5633 5633 5634 5634 5634 5634 5634 5634 5634 5634 5634 5634 5634 5634 5633 5633 5632 5632 5631 5631
5595 5597 5602 5604 5607 5607 5607 5608 5608 5610 5615 5621 5621 5620 5618 5618 5620 5621 5620 5619 5619 5619 5619 5620 5621 5622 5623 5624 5624 5624 5625 5625 5625 5625 5625 5626 5625 5625 5625 5625 5625 5625 5624 5624 5624 5623 5623 5622 5622
5586 5589 5592 5594 5595 5595 5597 5596 5598 5602 5608 5610 5611 5611 5611 5612 5613 5613 5614 5612 5612 5612 5612 5613 5614 5614 5615 5615 5615 5616 5616 5616 5616 5616 5616 5616 5617 5616 5616 5616 5616 5616 5615 5615 5615 5614 5614 5613 5613
5579 5580 5582 5585 5587 5589 5588 5589 5591 5597 5598 5599 5600 5601 5603 5604 5606 5605 5606 5605 5605 5606 5606 5607 5607 5607 5607 5607 5607 5607 5607 5607 5607 5607 5607 5607 5607 5607 5607 5606 5606 5606 5606 5606 5606 5605 5605 5604 5604
5571 5570 5572 5575 5577 5579 5582 5581 5584 5588 5588 5589 5591 5593 5595 5597 5598 5599 5600 5600 5599 5599 5599 5599 5600 5600 5599 5599 5599 5599 5598 5598 5598 5598 5598 5598 5598 5598 5597 5597 5597 5597 5597 5597 5596 5596 5596 5595 5594
5560 5557 5557 5566 5569 5571 5571 5572 5580 5578 5578 5580 5581 5583 5586 5589 5591 5592 5593 5593 5592 5592 5591 5592 5592 5591 5591 5591 5590 5590 5590 5589 5589 5589 5589 5589 5589 5589 5588 5587 5587 5587 5587 5587 5587 5586 5585 5584 5584
5542 5542 5547 5554 5559 5560 5560 5563 5571 5569 5570 5572 5573 5575 5578 5580 5583 5584 5585 5586 5585 5585 5584 5583 5583 5583 5582 5582 5581 5581 5581 5580 5580 5580 5579 5579 5579 5579 5578 5578 5577 5577 5577 5577 5577 5576 5575 5574 5574
5532 5532 5538 5541 5547 5548 5548 5553 5561 5561 5562 5563 5565 5567 5569 5572 5575 5576 5577 5578 5578 5577 5576 5575 5575 5574 5574 5573 5572 5571 5571 5570 5570 5570 5570 5570 5570 5569 5568 5568 5567 5566 5566 5566 5566 5565 5564 5564 5564
5528 5527 5527 5532 5537 5536 5538 5544 5552 5553 5553 5555 5556 5558 5560 5563 5566 5567 5568 5569 5568 5568 5567 5567 5566 5565 5565 5564 5563 5562 5561 5561 5560 5561 5561 5561 5560 5560 5559 5558 5557 5556 5556 5555 5555 5555 5553 5552 5553
5520 5518 5518 5522 5527 5527 5526 5533 5543 5544 5547 5550 5551 5552 5553 5555 5557 5558 5559 5559 5559 5559 5559 5558 5557 5557 5556 5556 5555 5554 5553 5551 5551 5550 5550 5550 5550 5550 5549 5548 5547 5546 5545 5545 5544 5544 5542 5541 5541
5512 5510 5512 5513 5516 5515 5516 5527 5534 5539 5540 5543 5544 5545 5547 5548 5548 5549 5550 5550 5549 5549 5550 5550 5549 5548 5547 5546 5545 5543 5542 5541 5540 5540 5540 5540 5540 5540 5539 5539 5537 5536 5535 5534 5534 5533 5532 5530 5529
5506 5508 5507 5507 5501 5496 5503 5503 5524 5527 5530 5535 5535 5533 5536 5538 5539 5540 5541 5540 5540 5540 5540 5540 5539 5538 5537 5536 5536 5534 5533 5532 5531 5531 5530 5530 5530 5529 5529 5529 5528 5526 5525 5525 5524 5523 5522 5521 5519
5498 5497 5496 5495 5491 5485 5488 5489 5511 5516 5523 5528 5527 5526 5527 5529 5530 5532 5533 5533 5532 5530 5530 5529 5528 5527 5527 5526 5526 5525 5523 5522 5521 5521 5520 5520 5519 5519 5519 5519 5518 5516 5515 5514 5514 5513 5511 5510 5509
5490 5485 5481 5473 5473 5474 5481 5480 5498 5504 5515 5519 5519 5518 5518 5519 5521 5522 5523 5522 5521 5520 5519 5518 5518 5518 5517 5516 5515 5515 5514 5512 5511 5510 5510 5509 5509 5509 5508 5508 5507 5506 5505 5504 5503 5502 5501 5500 5499
5482 5473 5464 5462 5454 5465 5474 5473 5489 5503 5505 5507 5509 5509 5509 5509 5509 5511 5511 5512 5511 5511 5510 5509 5508 5508 5507 5506 5506 5505 5504 5503 5502 5502 5501 5500 5499 5498 5498 5497 5496 5496 5495 5494 5493 5492 5491 5490 5489
5472 5471 5461 5459 5455 5458 5462 5465 5487 5496 5495 5496 5498 5499 5500 5500 5499 5500 5501 5501 5501 5500 5499 5499 5498 5498 5498 5497 5496 5496 5495 5494 5493 5492 5491 5490 5490 5489 5489 5487 5487 5486 5485 5484 5483 5482 5481 5480 5479
5466 5459 5461 5448 5439 5442 5455 5461 5477 5489 5487 5487 5488 5490 5490 5490 5489 5489 5489 5490 5490 5490 5490 5489 5489 5488 5488 5487 5487 5486 5485 5485 5484 5483 5482 5481 5481 5480 5479 5477 5476 5476 5475 5474 5473 5471 5470 5469 5469
5460 5453 5445 5442 5442 5446 5453 5455 5471 5482 5483 5481 5480 5480 5481 5480 5479 5479 5479 5479 5481 5481 5480 5479 5478 5478 5477 5477 5476 5476 5476 5475 5475 5473 5472 5472 5471 5470 5469 5468 5466 5465 5464 5463 5462 5461 5460 5459 5458
5447 5445 5443 5436 5436 5440 5442 5464 5474 5475 5475 5473 5472 5471 5471 5470 5470 5469 5470 5470 5470 5470 5470 5469 5468 5468 5467 5467 5466 5466 5466 5465 5465 5464 5463 5462 5462 5461 5460 5458 5457 5456 5455 5454 5453 5452 5450 5449 5448
5439 5439 5434 5436 5430 5424 5424 5453 5471 5464 5462 5461 5461 5463 5462 5461 5460 5460 5460 5460 5460 5460 5460 5460 5459 5458 5458 5458 5457 5456 5456 5455 5454 5454 5453 5453 5452 5452 5450 5449 5447 5446 5445 5444 5444 5442 5441 5440 5440